EW3266 Weather Reports


time (UTC)temp
C
wind
direction
speed
KPH
gust
KPH
rain 1hr
cm
rain 24hr
cm
rain mn
cm
humidity
%
barometer
mb
20210122064620 5 255 3.2 9.7 0.00 0.00 0.00 42 1017.0
20210122063051 5 258 6.4 11.3 0.00 0.00 0.00 41 1017.1
20210122060148 6 253 12.9 17.7 0.00 0.00 0.00 40 1017.4
20210122060047 6 248 12.9 17.7 0.00 0.00 0.00 40 1017.4
20210122054611 6 254 12.9 20.9 0.00 0.00 0.00 38 1017.3
20210122051550 6 245 12.9 19.3 0.00 0.00 0.00 38 1017.5
20210122050123 7 256 16.1 22.5 0.00 0.00 0.00 37 1017.4
20210122043026 7 246 14.5 19.3 0.00 0.00 0.00 37 1017.4
20210122041609 7 241 14.5 19.3 0.00 0.00 0.00 37 1017.3
20210122040029 7 252 11.3 16.1 0.00 0.00 0.00 37 1017.4
20210122034522 7 236 14.5 22.5 0.00 0.00 0.00 36 1017.2
20210121233036 12 253 24.1 32.2 0.00 0.00 0.00 28 1017.0
20210121231522 12 263 24.1 32.2 0.00 0.00 0.00 29 1017.2
20210121230019 13 258 22.5 33.8 0.00 0.00 0.00 29 1017.5
20210121224519 13 257 22.5 30.6 0.00 0.00 0.00 29 1017.2
20210121223019 13 279 27.4 37.0 0.00 0.00 0.00 27 1017.2
20210121221501 13 302 24.1 35.4 0.00 0.00 0.00 27 1017.5
20210121220159 14 272 17.7 27.4 0.00 0.00 0.00 29 1017.5
20210121214625 13 292 20.9 30.6 0.00 0.00 0.00 27 1017.6
20210121213328 14 244 20.9 29.0 0.00 0.00 0.00 31 1017.9
20210121211725 13 257 20.9 29.0 0.00 0.00 0.00 31 1017.8
20210121210122 14 268 20.9 27.4 0.00 0.00 0.00 31 1018.1
20210121204728 13 264 20.9 25.7 0.00 0.00 0.00 32 1018.4
20210121203055 13 242 12.9 24.1 0.00 0.00 0.00 37 1018.7
20210121201621 13 265 16.1 24.1 0.00 0.00 0.00 35 1018.5
20210121200112 13 250 11.3 22.5 0.00 0.00 0.00 35 1018.7
20210121194559 13 235 16.1 24.1 0.00 0.00 0.00 35 1019.1
20210121193146 13 261 14.5 22.5 0.00 0.00 0.00 33 1019.3
20210121191711 13 274 12.9 20.9 0.00 0.00 0.00 40 1019.7
20210121190126 12 300 11.3 14.5 0.00 0.00 0.00 45 1020.1
20210121184621 11 344 1.6 12.9 0.00 0.00 0.00 47 1020.3
20210121183059 11 248 3.2 14.5 0.00 0.00 0.00 49 1020.6
20210121181614 11 279 6.4 12.9 0.00 0.00 0.00 49 1020.9
20210121180037 10 261 6.4 11.3 0.00 0.00 0.00 50 1021.1
20210121174551 10 264 3.2 6.4 0.00 0.00 0.00 50 1021.0
20210121173034 8 340 3.2 4.8 0.00 0.00 0.00 51 1021.3
20210121171602 8 5 1.6 4.8 0.00 0.00 0.00 53 1020.8
20210121170024 8 76 1.6 4.8 0.00 0.00 0.00 55 1020.6
20210121164518 6 246 1.6 6.4 0.00 0.00 0.00 65 1020.5
20210121161740 6 69 6.4 9.7 0.00 0.00 0.00 66 1020.4
20210121160149 3 90 1.6 6.4 0.00 0.00 0.00 77 1020.2
20210121154649 1 136 3.2 6.4 0.00 0.00 0.00 80 1019.9
20210121154529 1 155 3.2 6.4 0.00 0.00 0.00 80 1019.9
20210121153113 0 265 1.6 6.4 0.00 0.00 0.00 80 1020.1
20210121151545 0 90 0.0 4.8 0.00 0.00 0.00 84 1019.9
20210121150105 0 70 1.6 4.8 0.00 0.00 0.00 79 1019.8
20210121144536 0 166 3.2 4.8 0.00 0.00 0.00 83 1020.0
20210121143029 -1 72 1.6 4.8 0.00 0.00 0.00 78 1019.9
20210121141528 0 171 0.0 8.0 0.00 0.00 0.00 79 1019.8
20210121140026 0 167 4.8 8.0 0.00 0.00 0.00 79 1019.6
20210121134513 0 157 4.8 8.0 0.00 0.00 0.00 81 1019.7
20210121133019 0 186 4.8 6.4 0.00 0.00 0.00 78 1019.9
20210121131518 0 170 4.8 8.0 0.00 0.00 0.00 77 1019.6
20210121130228 1 216 4.8 6.4 0.00 0.00 0.00 75 1019.6
20210121124644 0 203 3.2 6.4 0.00 0.00 0.00 80 1019.5
20210121123401 0 157 0.0 4.8 0.00 0.00 0.00 77 1019.3
20210121121623 0 188 1.6 6.4 0.00 0.00 0.00 78 1019.1
20210121120146 0 146 0.0 4.8 0.00 0.00 0.00 78 1018.8
20210121114640 -1 126 1.6 4.8 0.00 0.00 0.00 77 1018.9
20210121111654 0 148 1.6 4.8 0.00 0.00 0.00 75 1019.3
20210121104618 0 121 0.0 3.2 0.00 0.00 0.00 76 1019.5
20210121103044 1 109 0.0 4.8 0.00 0.00 0.00 74 1019.5
20210121100100 0 171 6.4 8.0 0.00 0.00 0.00 77 1019.5
20210121094645 0 158 1.6 6.4 0.00 0.00 0.00 75 1019.4
20210121091805 1 145 4.8 8.0 0.00 0.00 0.00 67 1019.4
20210121084552 2 245 0.0 4.8 0.00 0.00 0.00 68 1019.2
20210121083049 2 265 0.0 6.4 0.00 0.00 0.00 65 1018.9
20210121081641 2 144 6.4 11.3 0.00 0.00 0.00 67 1019.0
20210121074729 2 128 3.2 6.4 0.00 0.00 0.00 69 1019.2
20210121071710 1 190 1.6 6.4 0.00 0.00 0.00 69 1019.6
20210121070115 1 136 4.8 6.4 0.00 0.00 0.00 69 1019.6